Location: Ferrara
(44.8330°N, 11.5830°E)
Time: 08:53:48
(UTC+01:00)

ISS - Visible Passes

Search period start: 22 January 2019 00:00
Search period end: 01 February 2019 00:00
Orbit: 404 x 410 km, 51.6° (Epoch: 23 January)

Date Brightness Start Highest point End Pass type
(mag) Time Alt. Az. Time Alt. Az. Time Alt. Az.
22 Jan -1.7 19:28:35 10° SW 19:30:01 23° SW 19:30:01 23° SW visible
23 Jan -3.1 18:37:31 10° SSW 18:40:35 36° SE 18:41:04 34° ESE visible
24 Jan -2.1 17:46:49 10° S 17:49:22 21° SE 17:51:57 10° E visible
24 Jan -2.5 19:22:24 10° WSW 19:24:46 41° W 19:24:46 41° W visible
25 Jan -3.9 18:30:59 10° SW 18:34:17 82° SSE 18:35:40 32° ENE visible
25 Jan -0.3 20:08:09 10° WNW 20:08:23 11° WNW 20:08:23 11° WNW visible
26 Jan -3.3 17:39:47 10° SW 17:42:57 47° SE 17:46:09 10° ENE visible
26 Jan -2.5 19:16:29 10° W 19:19:13 35° NW 19:19:13 35° NW visible
27 Jan -3.2 18:24:51 10° WSW 18:28:05 51° NNW 18:29:59 22° NE visible
27 Jan -0.5 20:02:20 10° WNW 20:02:42 12° WNW 20:02:42 12° WNW visible
28 Jan -2.2 19:10:39 10° WNW 19:13:25 27° NNW 19:13:25 27° NNW visible
29 Jan -2.5 18:18:55 10° W 18:21:56 32° NNW 18:24:07 16° NE visible
29 Jan -0.7 19:56:19 10° NW 19:56:49 13° NW 19:56:49 13° NW visible
30 Jan -2.2 19:04:42 10° WNW 19:07:29 24° N 19:07:30 24° N visible
31 Jan -2.2 18:13:00 10° WNW 18:15:51 25° N 18:18:09 13° NE visible
31 Jan -1.0 19:50:04 10° NW 19:50:52 15° NW 19:50:52 15° NW visible
